TITAN 3C TRANSTAGE DEB, 1835

Orbit data source: Space-Track

TITAN 3C TRANSTAGE DEB, 1835 is space debris in LEO originally from a launch on Fri, 15 Oct 1965 UTC launched from the Air Force Eastern Test Range (AFETR). Debris objects in space refer to the collection of defunct objects orbiting the Earth. Examples of debris include non-operational satellites, rocket bodies, and fragments generated from explosions, collisions, or faulty payload assembly.

Loading next visibility...
Identifier
1835, 1965-082EA
Orbit
LEO
Country
Flag of USUS
Related business
Manufacturer
Unknown
Mission
Spacecraft
Bus & Motor
Unknown
Mass
Unknown
Launch date (UTC)
1965-10-15 (60 years ago)
Launch vehicle
Unknown
Launch site
Air Force Eastern Test Range (AFETR)
Object type
Payload
Rocket body
Debris
Shape & HBR
Unknown shape, 0.2 m
Radar Cross Section
Small (<0.1 m²)

Expand to show TLE details & history
Last TLE update: 10 hours ago

TLE from 10 hours ago
0 TITAN 3C TRANSTAGE DEB
1 01835U 65082EA  25355.51957524  .00004094  00000-0  26053-3 0  9992
2 01835  32.3953  68.2435 0011869 317.0332  42.9404 15.07445605220527
Epoch: 2025-12-21T12:28Z
TLE epoch observation values (Epoch: 2025-12-21T12:28:11.300Z)
Latitude
-0°
Longitude
150.86556°
Altitude
536.649 km
Speed
7.6 km/s
True Right ascension
04h 32m 58s
True Declination
0° 00' 00"
Sunlit
Object was in full shadow at epoch
Visualization orbit readout
Latitude
Unknown
Longitude
Unknown
Altitude
Unknown
Speed
Unknown
Apparent Right ascension
Unknown
Apparent Declination
Unknown
Sunlit
N/A
Visualization observer readout
Local Sidereal Time
21:35:07
Azimuth
Unknown
Elevation
Unknown
Doppler factor
Unknown
Orbital elements
Apogee altitude
555.858 km
Perigee altitude
539.417 km
Semi-major axis
6,925.775 km
Eccentricity
0.00119
Inclination
32.3953°
RAAN
68.2435°
Arg. of periapsis
317.0332°
True anomaly
43.03315°
Mean anomaly
42.9404°
Eccentric anomaly
42.98677°
Mean motion
3.76566 °/min
Orbital period
95.6 mins
BSTAR
0.00026053

Documentation

Showing up to 5 results
|